407  
ASUS42 KRAH 221910  
RWRRAH  
NORTH CAROLINA WEATHER ROUNDUP  
NATIONAL WEATHER SERVICE RALEIGH NC  
300 PM EDT WED MAY 22 2019  
 
NOTE: "FAIR" INDICATES FEW OR NO CLOUDS BELOW 12,000 FEET WITH NO  
SIGNIFICANT WEATHER AND/OR S TO VISIBILITY
.  
 
NCZ001-053-055-056-065-067-222000-  
WESTERN NORTH CAROLINA  
 
CITY SKY/WX TMP DP RH WIND PRES REMARKS
 
ASHEVILLE FAIR 77 63 61 S13 30.23S  
JEFFERSON FAIR 67 61 81 SE6 30.29S  
MORGANTON CLOUDY 73 62 68 E5 30.27F  
HICKORY CLOUDY 70 61 73 E7 30.25F  
WILKESBORO NOT AVBL  
RUTHERFORDTON CLOUDY 70 64 83 E5 30.24F  
MOUNT AIRY CLOUDY 71 60 68 E5 30.28F  
BOONE FAIR 70 60 70 CALM 30.30S  

 
 
NCZ021-022-025-041-071-084-088-222000-  
CENTRAL NORTH CAROLINA  
 
CITY SKY/WX TMP DP RH WIND PRES REMARKS
 
CHARLOTTE CLOUDY 77 64 64 NE9 30.23R  
GREENSBORO CLOUDY 74 60 61 E7 30.24S  
WINSTON-SALEM CLOUDY 72 59 63 VRB3 30.26S  
RALEIGH-DURHAM PTSUNNY 77 54 44 SE8 30.23S  
FORT BRAGG NOT AVBL  
FAYETTEVILLE CLOUDY 77 60 55 NE6 30.22R  
BURLINGTON CLOUDY 76 56 49 CALM 30.24S  
ROXBORO PTSUNNY 73 54 49 CALM 30.26S  
HENDERSON FAIR 75 52 44 NE3 30.24S  
LOUISBURG NOT AVBL  
LAURINBURG CLOUDY 80 60 50 VRB7 30.22R  

 
 
NCZ011-015-027-028-043-044-047-080-103-222000-  
NORTHEASTERN NORTH CAROLINA  
 
CITY SKY/WX TMP DP RH WIND PRES REMARKS
 
ROCKY MT-WILSO FAIR 81 53 37 VRB3 30.23S  
GREENVILLE FAIR 82 50 32 E8 30.23S  
WASHINGTON FAIR 82 50 33 E9 30.21F  
ELIZABETH CITY FAIR 75 49 39 NE9 30.26S  
MANTEO FAIR 71 51 50 NE10 30.27R  
CAPE HATTERAS FAIR 77 54 44 NE9G18 30.24S  

 
 
NCZ078-087-090-091-093-098-101-222000-  
SOUTHEASTERN NORTH CAROLINA  
 
CITY SKY/WX TMP DP RH WIND PRES REMARKS
 
GOLDSBORO NOT AVBL  
KENANSVILLE CLOUDY 79 57 47 E3 30.22R  
NEW BERN FAIR 81 57 43 MISG 30.22F  
CHERRY POINT FAIR 80 50 34 NE13 30.24S  
BEAUFORT NOT AVBL  
JACKSONVILLE FAIR 81 59 47 SE14 30.21R  
WILMINGTON CLOUDY 78 58 49 E9G17 30.22R  

 
 
 
 
CLICK HERE TO GO TO PREVIOUS BULLETINS.

The Nexlab NC Page Main Text Page